Weather History for Salem, OR

Change the Weather History Date:

Sunday, February 16, 2014

  Actual Average Record
Temperature  
Mean Temperature 46 °F 43 °F  
Max Temperature 51 °F 52 °F 65 °F (1902)
Min Temperature 40 °F 34 °F 17 °F (1956)
Degree Days  
Heating Degree Days 19 22  
Month to date heating degree days 406 359  
Since 1 July heating degree days 3064 2986  
Cooling Degree Days 0 0  
Month to date cooling degree days 0 0  
Year to date cooling degree days 0 0  
Moisture  
Dew Point 38 °F    
Average Humidity 77    
Maximum Humidity 92    
Minimum Humidity 61    
Precipitation  
Precipitation 0.10 in 0.15 in 2.24 in (1970)
Month to date precipitation 4.75 2.68  
Year to date precipitation 6.63 8.64  
Sea Level Pressure  
Sea Level Pressure 29.98 in    
Wind  
Wind Speed 16 mph (South)    
Max Wind Speed 30 mph    
Max Gust Speed 44 mph    
Visibility 10 miles    
Events Rain    
T = Trace of Precipitation, MM = Missing Value Source: NWS Daily Summary

Daily Weather History Graph

Daily Weather History Graph

Search for Another Location

Airport:

Trip Planner

Search our weather history database for the weather conditions in past years. The results will help you decide how hot, cold, wet, or windy it might be!

Date:

Astronomy

Feb. 16, 2014 Rise Set
Actual Time 7:11 AM PST 5:41 PM PST
Civil Twilight 6:40 AM PST 6:11 PM PST
Nautical Twilight 6:06 AM PST 6:46 PM PST
Astronomical Twilight 5:32 AM PST 7:20 PM PST
Moon 7:51 PM PST (2/16) 7:37 AM PST (2/16)
Length of Visible Light 11h 30m
Length of Day
10h 30m
Full, 97% of the Moon is Illuminated
Feb 16
Full
Feb 22
Last Quarter
Mar 1
New
Mar 8
First Quarter
Mar 16
Full

Hourly Weather History & Observations

Time (PST) Temp. Windchill Dew Point Humidity Pressure Visibility Wind Dir Wind Speed Gust Speed Precip Events Conditions
12:35 AM 43.0 °F 36.4 °F 37.9 °F 82% 29.86 in 4.0 mi SW 12.7 mph 24.2 mph 0.04 in Rain Rain
12:48 AM 43.0 °F 35.7 °F 37.0 °F 80% 29.85 in 10.0 mi SW 15.0 mph 27.6 mph 0.06 in Rain Light Rain
12:56 AM 42.1 °F 35.2 °F 37.0 °F 82% 29.86 in 10.0 mi SSW 12.7 mph - 0.06 in Rain Light Rain
1:56 AM 41.0 °F 33.9 °F 36.0 °F 82% 29.88 in 10.0 mi South 12.7 mph - 0.00 in   Scattered Clouds
2:56 AM 41.0 °F 33.1 °F 37.0 °F 86% 29.90 in 10.0 mi South 15.0 mph - 0.00 in   Partly Cloudy
3:56 AM 39.9 °F 32.1 °F 37.0 °F 89% 29.90 in 10.0 mi South 13.8 mph - N/A   Partly Cloudy
4:56 AM 41.0 °F 33.1 °F 36.0 °F 82% 29.93 in 10.0 mi South 15.0 mph - N/A   Scattered Clouds
5:56 AM 42.1 °F 37.1 °F 37.0 °F 82% 29.96 in 10.0 mi South 8.1 mph - 0.01 in Rain Light Rain
6:56 AM 39.9 °F 32.5 °F 36.0 °F 86% 29.98 in 10.0 mi SSE 12.7 mph - 0.00 in   Mostly Cloudy
7:56 AM 41.0 °F 34.7 °F 37.0 °F 86% 30.01 in 10.0 mi South 10.4 mph - N/A   Mostly Cloudy
8:56 AM 43.0 °F 36.8 °F 37.9 °F 82% 30.04 in 10.0 mi South 11.5 mph - N/A   Overcast
9:56 AM 45.0 °F 38.5 °F 37.9 °F 76% 30.07 in 10.0 mi SSE 13.8 mph - N/A   Mostly Cloudy
10:56 AM 46.0 °F 40.2 °F 39.0 °F 76% 30.10 in 10.0 mi South 12.7 mph - 0.00 in Rain Light Rain
11:56 AM 48.0 °F - 39.9 °F 74% 30.09 in 10.0 mi South 17.3 mph 24.2 mph 0.00 in   Mostly Cloudy
12:03 PM 48.0 °F - 39.9 °F 74% 30.08 in 9.0 mi South 18.4 mph 25.3 mph 0.00 in Rain Light Rain
12:06 PM 46.9 °F - 39.9 °F 77% 30.08 in 8.0 mi South 18.4 mph 25.3 mph 0.00 in Rain Light Rain
12:56 PM 46.9 °F - 41.0 °F 80% 30.08 in 10.0 mi South 11.5 mph - 0.02 in Rain Light Rain
1:03 PM 46.9 °F - 42.1 °F 83% 30.07 in 10.0 mi SSE 12.7 mph - 0.00 in Rain Light Rain
1:56 PM 48.9 °F - 41.0 °F 74% 30.05 in 10.0 mi South 12.7 mph 25.3 mph 0.00 in   Overcast
2:56 PM 48.9 °F - 41.0 °F 74% 30.04 in 10.0 mi South 17.3 mph 26.5 mph 0.01 in   Mostly Cloudy
3:56 PM 51.1 °F - 41.0 °F 68% 30.02 in 10.0 mi SSE 15.0 mph 24.2 mph 0.00 in Rain Light Rain
4:56 PM 51.1 °F - 39.9 °F 66% 30.00 in 10.0 mi South 18.4 mph 26.5 mph 0.00 in   Overcast
5:56 PM 51.1 °F - 39.0 °F 63% 29.99 in 10.0 mi South 18.4 mph 29.9 mph N/A   Overcast
6:56 PM 50.0 °F - 37.9 °F 63% 29.97 in 10.0 mi South 21.9 mph 31.1 mph N/A   Mostly Cloudy
7:56 PM 50.0 °F - 39.0 °F 66% 29.96 in 10.0 mi South 23.0 mph 34.5 mph N/A   Overcast
8:56 PM 50.0 °F - 37.9 °F 63% 29.96 in 10.0 mi South 18.4 mph 31.1 mph N/A   Overcast
9:56 PM 50.0 °F - 37.0 °F 61% 29.96 in 10.0 mi South 21.9 mph 33.4 mph N/A   Overcast
10:56 PM 48.9 °F - 37.0 °F 64% 29.93 in 10.0 mi South 27.6 mph 40.3 mph 0.00 in   Mostly Cloudy
11:56 PM 48.9 °F - 37.0 °F 64% 29.92 in 10.0 mi South 27.6 mph 43.7 mph 0.00 in   Overcast